Theta_e
315 316 317 318 319 320 321 323 323 323 329 333 336 340 342 342 339 339 340 341 342 341
318 317 316 316 317 318 319 324 326 326 327 331 333 334 339 342 341 342 341 343 343 340
318 316 316 315 315 316 318 319 321 323 325 327 329 331 333 335 341 341 343 343 343 341
315 316 316 317 317 318 318 319 321 323 324 325 325 324 325 325 332 334 338 342 341 340
312 311 311 311 313 316 317 319 321 324 325 326 327 326 325 324 327 334 333 333 336 337
313 312 312 312 312 312 315 318 319 322 324 322 322 322 324 327 327 326 329 338 338 338
312 313 313 312 310 312 316 316 316 317 319 320 321 322 322 323 324 328 326 331 339 338
312 311 312 311 311 313 312 313 315 317 318 317 318 320 319 319 321 325 328 327 335 340
307 309 310 310 310 309 309 310 312 312 312 311 314 308 308 311 319 322 322 325 332 342
309 310 310 310 309 308 308 309 309 309 309 308 310 306 304 306 314 319 321 323 327 337
309 309 310 310 309 310 310 309 309 309 308 309 309 303 302 303 310 313 320 323 326 331
309 308 309 309 308 308 308 308 308 308 307 306 306 301 300 302 306 309 313 322 328 334
308 309 308 308 308 309 308 307 307 307 307 305 306 300 299 300 305 306 309 316 326 313
307 307 307 307 307 309 308 307 306 305 306 306 305 305 298 298 305 307 310 317 326 331
Wind_Speed
9 6 7 7 5 5 4 4 5 5 6 8 8 6 9 9 8 10 9 11 9 8
9 8 7 8 6 4 5 4 7 6 6 7 5 6 7 8 10 10 11 11 11 11
11 10 9 7 8 8 7 6 7 7 7 6 6 6 7 6 10 10 10 8 13 11
11 11 7 7 7 7 6 7 7 7 6 6 7 7 7 8 10 9 11 11 11 11
13 9 8 8 9 9 8 7 7 7 7 6 7 7 8 9 8 9 10 11 11 10
12 11 12 12 10 8 8 8 7 7 6 6 6 6 6 7 9 8 9 11 8 11
15 14 14 14 12 12 9 7 7 7 7 6 6 7 8 9 10 11 9 12 12 15
16 15 14 13 13 11 9 9 8 7 6 5 5 5 7 9 10 11 10 11 14 14
4 6 10 14 14 10 9 8 8 8 8 7 5 7 9 9 10 11 10 11 12 14
7 7 9 12 12 12 12 10 9 9 9 8 8 12 10 11 9 8 11 10 11 10
9 11 12 14 15 14 13 15 14 13 12 9 7 11 13 12 9 9 10 11 12 14
15 16 15 15 16 15 13 14 16 14 12 10 9 12 11 7 6 9 11 11 13 14
15 17 17 15 14 15 15 16 13 17 14 13 11 12 13 8 5 9 9 11 14 14
17 15 15 12 11 12 15 15 15 15 13 14 13 11 13 11 6 7 9 9 10 7
Wind_Direction
194 189 194 201 206 225 241 256 251 251 234 215 227 217 245 245 235 226 225 219 223 235
192 200 202 213 210 211 224 235 244 241 254 257 255 251 235 238 240 236 225 226 224 223
198 200 206 200 205 207 221 225 240 240 226 232 240 242 258 263 254 238 232 231 232 226
201 202 193 193 215 216 220 228 231 238 245 244 251 242 237 252 262 228 236 234 223 228
205 200 192 196 202 207 211 222 226 226 224 227 238 235 232 241 245 246 239 238 241 250
211 199 202 213 212 194 202 210 218 232 230 237 244 255 257 250 262 260 250 245 231 249
211 210 208 209 205 202 192 190 209 214 222 236 252 270 274 286 294 286 258 254 244 239
213 208 208 211 215 206 189 200 192 199 205 215 243 258 280 280 283 288 278 252 247 241
252 241 213 213 216 211 210 202 192 198 199 206 225 253 275 283 283 286 279 283 269 236
236 219 213 220 215 213 212 216 211 211 202 209 204 210 245 277 285 286 280 272 276 267
233 223 214 210 218 219 209 211 214 222 222 208 214 208 223 251 272 283 283 279 278 268
252 250 239 220 217 221 215 212 213 216 213 205 223 204 208 235 276 286 282 293 277 262
256 252 245 234 222 224 220 216 213 217 212 198 211 209 211 197 244 276 278 277 278 216
246 236 238 237 240 234 223 222 216 217 207 204 191 218 213 197 225 254 270 268 282 220